This is the latest recevied weather packets stored in our database for station/object SP8EBC-11. If no packets are shown the sender has not sent any weather packets the latest 1 day(s).
| Time | Temp. | Humidity | Pressure | Rain* | Wind** | Luminosity | Snow |
|---|---|---|---|---|---|---|---|
| 1778006653 | 16.67° C | 66% | 991.2 hPa | - | 3.13 m/s, 29° | - | - |
| 1778006533 | 16.67° C | 66% | 991.2 hPa | - | 2.68 m/s, 32° | - | - |
| 1778006413 | 16.67° C | 66% | 991.2 hPa | - | 2.24 m/s, 35° | - | - |
| 1778006293 | 16.67° C | 66% | 991.1 hPa | - | 2.24 m/s, 39° | - | - |
| 1778006174 | 16.67° C | 66% | 991.1 hPa | - | 1.79 m/s, 41° | - | - |
| 1778006053 | 16.67° C | 66% | 991.1 hPa | - | 2.24 m/s, 33° | - | - |
| 1778005933 | 17.22° C | 66% | 991 hPa | - | 2.24 m/s, 31° | - | - |
| 1778005813 | 17.22° C | 66% | 991 hPa | - | 2.24 m/s, 32° | - | - |
| 1778005693 | 17.22° C | 66% | 991 hPa | - | 2.24 m/s, 33° | - | - |
| 1778005572 | 17.22° C | 65% | 991 hPa | - | 2.24 m/s, 38° | - | - |
| 1778005453 | 17.22° C | 65% | 990.9 hPa | - | 1.79 m/s, 49° | - | - |
| 1778005333 | 17.22° C | 65% | 990.9 hPa | - | 2.24 m/s, 48° | - | - |
| 1778005213 | 17.22° C | 65% | 990.9 hPa | - | 2.24 m/s, 48° | - | - |
| 1778005093 | 17.22° C | 65% | 990.8 hPa | - | 2.24 m/s, 49° | - | - |
| 1778004972 | 17.22° C | 65% | 990.8 hPa | - | 2.24 m/s, 54° | - | - |
| 1778004852 | 17.22° C | 65% | 990.8 hPa | - | 2.24 m/s, 53° | - | - |
| 1778004732 | 17.22° C | 65% | 990.7 hPa | - | 2.68 m/s, 50° | - | - |
| 1778004612 | 17.22° C | 65% | 990.7 hPa | - | 2.68 m/s, 55° | - | - |
| 1778004492 | 17.22° C | 65% | 990.7 hPa | - | 2.68 m/s, 63° | - | - |
| 1778004372 | 17.22° C | 65% | 990.7 hPa | - | 2.68 m/s, 54° | - | - |
| 1778004252 | 17.22° C | 65% | 990.7 hPa | - | 2.68 m/s, 48° | - | - |
| 1778004132 | 17.78° C | 65% | 990.7 hPa | - | 2.68 m/s, 37° | - | - |
| 1778004020 | 17.78° C | 65% | 990.7 hPa | - | 3.13 m/s, 35° | - | - |
| 1778003892 | 17.78° C | 65% | 990.7 hPa | - | 2.68 m/s, 48° | - | - |
| 1778003771 | 17.78° C | 65% | 990.7 hPa | - | 2.68 m/s, 72° | - | - |
* Rain since midnight (hover to see other rain measurements)
** Current wind speed in m/s (hover to see current wind gust speed)